Location: Liscomb Game Sanctuary
(45.1633°N, 62.5575°W)
Time: 00:42:11
(UTC-04:00)

Daily predictions for brighter satellites

Satellite Brightness Start Highest point End
(mag) Time Altitude Azimuth Time Altitude Azimuth Time Altitude Azimuth
USA 234 4.3 04:05:43 10° ENE 04:11:13 35° NNE 04:11:13 35° NNE
SL-16 R/B 3.1 04:28:03 45° ESE 04:28:03 45° ESE 04:32:18 10° SE
Cosmos 1725 Rocket 4.4 04:29:00 60° ESE 04:29:26 61° E 04:35:38 10° NNE
Cosmos 2297 Rocket 2.9 04:37:38 47° NE 04:37:38 47° NE 04:41:39 10° NNE
Feng Yun 1-1 Rocket 4.4 04:40:39 10° NNE 04:46:05 67° ESE 04:46:05 67° ESE
Cosmos 2227 Rocket 3.2 04:51:05 36° N 04:51:05 36° N 04:54:26 10° NNE
SeaSat 1 3.6 04:57:08 10° NNE 04:59:51 33° NNE 04:59:51 33° NNE
Cosmos 304 Rocket 4.2 05:04:52 54° SSE 05:04:52 54° SSE 05:08:34 10° SSE
Cosmos 968 Rocket 4.0 05:03:45 14° S 05:08:15 59° ESE 05:13:27 10° NNE
USA 229 DEB 3.7 05:08:18 58° WSW 05:08:43 59° WSW 05:15:47 10° SSE
USA 229 3.7 05:08:21 59° WSW 05:08:49 60° WSW 05:15:53 10° SSE
SL-14 R/B 4.1 05:13:02 45° NE 05:13:42 50° ENE 05:17:39 10° SSE
Cosmos 2151 3.7 05:12:41 36° NNE 05:14:03 51° ENE 05:18:11 10° SSE
Cosmos 2233 Rocket 3.9 05:11:13 10° S 05:17:28 87° E 05:23:49 10° N
SL-8 R/B 3.7 05:17:45 73° N 05:17:47 73° NNE 05:22:36 10° E
ADEOS II 4.2 05:13:21 10° N 05:13:57 13° N 05:13:57 13° N
Cosmos 1842 Rocket 3.6 05:18:05 77° ESE 05:18:11 78° E 05:22:34 10° NNE
Cosmos 2082 4.3 05:19:50 41° NNW 05:19:50 41° NNW 05:24:13 10° NNE
NOAA 6 4.0 05:15:05 10° NNE 05:20:19 84° ESE 05:25:31 10° SSW
COSMO-SKYMED 1 2.5 05:16:05 10° SSE 05:20:26 83° ENE 05:20:34 81° NE
NOSS 3-1 (A) 4.2 05:17:48 26° NNW 05:22:25 70° NE 05:30:41 10° SE
ISS -1.1 05:26:18 21° SSE 05:26:18 21° SSE 05:27:35 10° SE
ATLAS 2AS CENTAUR R/B 4.2 05:24:34 15° NNW 05:30:39 36° NNE 05:37:44 10° E
Cosmos 1603 4.0 05:27:11 22° NNW 05:30:52 66° ENE 05:36:29 10° SE
Cosmos 1500 Rocket 3.7 05:33:22 57° SW 05:33:22 57° SW 05:37:11 10° S
Cosmos 2346 Rocket 4.3 05:30:32 10° NNW 05:36:38 68° W 05:42:38 10° S
Cosmos 220 Rocket 3.9 05:37:32 65° W 05:37:50 67° WNW 05:42:13 10° NNE
CZ-4 R/B 3.7 05:41:30 10° NE 05:44:57 26° E 05:48:26 10° SSE
Cosmos 1777 Rocket 4.3 05:39:53 10° S 05:45:02 66° ESE 05:50:13 10° NNE
USA 234 3.5 05:47:26 10° ESE 05:53:56 68° NNE 05:58:34 21° NW
CSL-04 Rocket 3.9 05:48:41 10° NNE 05:53:59 69° ESE 05:59:14 10° S
Cosmos 292 Rocket 4.0 05:55:08 12° NNW 05:59:37 71° ENE 06:04:24 10° SSE
Cosmos 2227 4.2 05:56:32 10° SSW 06:02:09 87° ESE 06:07:49 10° NNE
NOSS 3-1 (C) 4.1 05:57:38 21° NW 06:03:02 63° WSW 06:11:13 10° SSE
Genesis I 3.3 06:04:08 37° WNW 06:05:23 56° WSW 06:09:12 10° SSE
ERBS 3.0 06:05:30 35° WSW 06:05:44 36° SW 06:08:54 10° SSE
IDEFIX/ARIANE 42P 3.7 06:01:08 10° NNE 06:06:14 47° E 06:11:17 10° S
SKYMED 2 4.3 06:04:50 10° SSW 06:08:40 31° W 06:09:13 30° W
Cosmos 1464 Rocket 4.0 06:02:59 10° S 06:09:19 83° W 06:15:38 10° N
SMAP 4.5 06:05:23 10° NNE 06:09:49 41° E 06:14:13 10° S
Cosmos 1538 Rocket 4.5 06:07:13 23° NW 06:09:59 39° WSW 06:14:56 10° S
SL-16 R/B 3.2 06:10:00 24° W 06:10:27 24° WSW 06:14:51 10° SSW
Meteor 2-12 Rocket 4.4 06:04:25 10° S 06:10:34 82° W 06:16:47 10° N
BREEZE-M DEB (TANK) 2.9 06:10:28 31° NW 06:11:21 40° N 06:13:28 10° E
YAOGAN 1 4.2 06:08:06 10° NNE 06:12:08 36° E 06:16:09 10° SSE
Coronas F rocket 2.8 06:10:03 10° N 06:12:17 32° ENE 06:14:29 10° SE
Cosmos 923 Rocket 3.9 06:12:24 10° NNW 06:17:38 72° WSW 06:22:50 10° SSE
CZ-3 Stage 3 4.2 06:13:41 10° SW 06:18:04 24° S 06:30:13 10° SE
Ariane Rocket 3.0 06:13:49 10° N 06:18:52 61° WNW 06:23:52 10° SSW
Cosmos 2297 Rocket 3.4 06:19:30 20° WNW 06:20:38 22° NW 06:24:57 10° N
Cosmos 2058 3.4 06:20:01 15° NNW 06:22:57 35° W 06:26:45 10° SSW
Cosmos 1666 Rocket 3.6 06:19:29 10° N 06:23:58 89° W 06:28:26 10° S
Tiangong 2 3.9 06:23:03 10° SSW 06:25:03 16° SSE 06:27:03 10° ESE
Cosmos 1703 3.3 06:22:04 10° NNW 06:25:54 54° W 06:29:44 10° S
CZ-2C R/B 2.6 06:21:25 10° NNE 06:26:01 69° ESE 06:30:33 10° S
Cosmos 1680 Rocket 3.5 06:20:49 10° NNW 06:26:08 79° WSW 06:31:27 10° SSE
Cosmos 2221 2.6 06:22:12 10° SSW 06:26:25 51° WNW 06:30:39 10° N
Meteor 1-29 4.4 06:23:36 10° SE 06:26:52 38° ENE 06:30:09 10° N
Cosmos 2227 Rocket 3.8 06:32:56 14° NW 06:33:55 15° NW 06:37:03 10° N
SeaSat 1 4.2 06:36:22 10° N 06:38:43 14° NW 06:39:40 13° NW
Cosmos 1271 Rocket 3.7 06:37:29 10° SW 06:40:36 24° WNW 06:43:43 10° NNW
Cosmos 1340 Rocket 4.0 06:39:37 14° NW 06:41:50 21° W 06:44:52 10° SW
PAYLOAD A 4.0 06:39:22 10° N 06:44:19 56° WNW 06:49:04 10° SSW
Cosmos 1626 2.6 06:43:07 10° NNW 06:46:37 38° W 06:50:05 10° SSW
Cosmos 1356 Rocket 4.0 06:42:57 10° NNW 06:46:43 36° W 06:50:31 10° SSW
Helios 1B rocket 2.4 06:43:42 10° SSE 06:47:49 85° WSW 06:51:57 10° NNW
ATLAS CENTAUR R/B 4.2 06:45:37 10° NW 06:49:37 31° NNE 06:59:19 10° E
TELKOM 3 2.9 06:48:52 12° WSW 06:51:02 56° NNW 06:53:08 10° ENE
SJ-7 4.3 06:47:09 10° N 06:51:10 75° WNW 06:55:12 10° SSW
Cosmos 389 Rocket 2.5 06:47:33 10° SSW 06:51:12 71° WNW 06:54:54 10° N
Cosmos 1943 3.3 06:47:16 10° NNW 06:52:54 61° WSW 06:58:28 10° S
Cosmos 1484 Rocket 3.4 06:50:32 10° NNE 06:54:32 63° E 06:58:30 10° S
Cosmos 1470 Rocket 3.6 06:52:09 10° N 06:56:29 84° E 07:00:50 10° S
SL-8 R/B 4.4 06:55:44 10° WNW 07:00:13 42° SW 07:04:44 10° SE
Cosmos 2112 Rocket 4.4 06:55:55 10° NNW 07:01:00 46° WSW 07:06:04 10° S
CORIOLIS 4.2 06:59:33 10° NNE 07:04:59 77° WNW 07:10:25 10° SSW
EP 2 4.2 07:02:43 10° SW 07:05:18 79° NW 07:08:09 10° NE
Cosmos 2228 Rocket 3.1 07:01:10 10° SSW 07:05:35 68° W 07:10:00 10° N
Cosmos 1634 Rocket 4.2 06:59:45 10° S 07:06:03 81° E 07:12:20 10° N
SJ-12 4.4 07:03:38 10° N 07:07:24 37° WNW 07:11:09 10° SW
AQUARIUS 4.4 07:04:52 10° N 07:09:14 49° WNW 07:13:34 10° SW
COSMOS 2406 4.3 07:04:33 10° NNW 07:10:05 44° ENE 07:15:34 10° SE
